HVN233 VQPR-VABB

Flight info

Callsign HVN233
Flight time 2h 22m
Altitude 40000
Route PRO G348 BGD W105 KHR/N0379F240 V31 TEPAL V71 MIDIL W64 RRC/N0472F400 W100 KINKI G450 OPAKA EMRAK2A
Aircraft B772/H-SDE2E3FGHIJ5LORVWXY/LB1D1

Departure

Time 2025-09-09 10:30
Airport Paro International Airport (VQPR)

Arrival

Time 2025-09-09 12:52
Airport Chhatrapati Shivaji Maharaj International Airport (VABB)
Time Latitude Longitude Altitude Speed Heading
2025-09-09 10:25 27.41014 89.42035 7357 ft 8 kts 329°
2025-09-09 10:25 27.41131 89.41958 7359 ft 11 kts 330°
2025-09-09 10:26 27.41182 89.41911 7360 ft 0 kts
2025-09-09 10:27 27.41174 89.41929 7359 ft 3 kts 208°
2025-09-09 10:27 27.41169 89.41921 7359 ft 1 kts 257°
2025-09-09 10:28 27.41114 89.41969 7359 ft 10 kts 152°
2025-09-09 10:28 27.40726 89.42213 7351 ft 91 kts 149°
2025-09-09 10:29 27.38857 89.43395 7776 ft 183 kts 150°
2025-09-09 10:29 27.36755 89.44974 9057 ft 189 kts 145°
2025-09-09 10:30 27.34585 89.46920 9852 ft 217 kts 143°
2025-09-09 10:30 27.31608 89.48300 10698 ft 248 kts 181°
2025-09-09 10:31 27.29043 89.46323 12090 ft 249 kts 245°
2025-09-09 10:31 27.28194 89.44539 12447 ft 270 kts 234°
2025-09-09 10:32 27.23271 89.36764 13945 ft 345 kts 240°
2025-09-09 10:32 27.22076 89.34367 14355 ft 361 kts 241°
2025-09-09 10:33 27.19616 89.29398 15839 ft 368 kts 242°
2025-09-09 10:33 27.17107 89.24336 17307 ft 375 kts 241°
2025-09-09 10:34 27.14546 89.19177 18716 ft 385 kts 241°
2025-09-09 10:34 27.11915 89.13884 19987 ft 395 kts 241°
2025-09-09 10:35 27.09201 89.08432 21136 ft 407 kts 241°
2025-09-09 10:35 27.07831 89.05682 21747 ft 411 kts 242°
2025-09-09 10:36 27.03581 88.97162 23593 ft 424 kts 241°
2025-09-09 10:36 27.00672 88.91341 24723 ft 435 kts 241°
2025-09-09 10:37 26.97674 88.85361 25857 ft 445 kts 240°
2025-09-09 10:38 26.86059 88.64070 29611 ft 473 kts 238°
2025-09-09 10:41 26.69855 88.35024 33826 ft 506 kts 229°
2025-09-09 10:42 26.49527 88.19909 37894 ft 498 kts 208°
2025-09-09 10:45 26.22546 88.02255 39728 ft 502 kts 208°
2025-09-09 10:46 26.01935 87.87649 39707 ft 503 kts 213°
2025-09-09 10:49 25.76288 87.67260 39710 ft 503 kts 213°
2025-09-09 10:50 25.56159 87.51633 39712 ft 503 kts 211°
2025-09-09 10:53 25.29736 87.32719 39721 ft 502 kts 210°
2025-09-09 10:54 25.09161 87.18007 39726 ft 501 kts 210°
2025-09-09 10:57 24.82755 86.99208 39730 ft 501 kts 211°
2025-09-09 10:58 24.62156 86.84610 39771 ft 502 kts 210°
2025-09-09 11:01 24.31914 86.65752 39789 ft 499 kts 202°
2025-09-09 11:02 24.12708 86.56925 39791 ft 497 kts 199°
2025-09-09 11:05 23.83869 86.43906 39778 ft 504 kts 213°
2025-09-09 11:06 23.69310 86.22282 39768 ft 512 kts 237°
2025-09-09 11:09 23.55154 85.90869 39815 ft 513 kts 245°
2025-09-09 11:11 23.43351 85.62488 39856 ft 515 kts 245°
2025-09-09 11:13 23.31479 85.34254 39895 ft 513 kts 240°
2025-09-09 11:15 23.13994 85.09762 39890 ft 509 kts 229°
2025-09-09 11:17 22.94002 84.82782 39868 ft 510 kts 229°
2025-09-09 11:19 22.78394 84.61816 39893 ft 510 kts 229°
2025-09-09 11:21 22.61574 84.36957 39861 ft 511 kts 232°
2025-09-09 11:22 22.47043 84.15038 39836 ft 511 kts 232°
2025-09-09 11:25 22.30553 83.85651 39813 ft 518 kts 255°
2025-09-09 11:27 22.23713 83.55459 39814 ft 519 kts 255°
2025-09-09 11:29 22.16776 83.25212 39822 ft 521 kts 254°
2025-09-09 11:31 22.09729 82.94955 39796 ft 520 kts 254°
2025-09-09 11:33 22.02618 82.64684 39802 ft 521 kts 254°
2025-09-09 11:35 21.95453 82.34446 39789 ft 521 kts 253°
2025-09-09 11:37 21.88210 82.04147 39782 ft 521 kts 253°
2025-09-09 11:39 21.80892 81.74089 39807 ft 520 kts 253°
2025-09-09 11:41 21.73011 81.44255 39828 ft 520 kts 251°
2025-09-09 11:43 21.64973 81.14524 39830 ft 519 kts 252°
2025-09-09 11:45 21.57083 80.84857 39881 ft 518 kts 251°
2025-09-09 11:47 21.49147 80.55253 39827 ft 516 kts 252°
2025-09-09 11:49 21.41200 80.25763 39806 ft 515 kts 251°
2025-09-09 11:51 21.33203 79.96314 39833 ft 513 kts 251°
2025-09-09 11:53 21.25159 79.66911 39807 ft 514 kts 251°
2025-09-09 11:55 21.17077 79.37588 39829 ft 515 kts 251°
2025-09-09 11:57 21.08905 79.08156 39837 ft 517 kts 251°
2025-09-09 11:59 20.99680 78.79181 39844 ft 514 kts 249°
2025-09-09 12:01 20.90314 78.50365 39867 ft 511 kts 249°
2025-09-09 12:02 20.82132 78.25314 39852 ft 509 kts 249°
2025-09-09 12:05 20.71594 77.93253 39860 ft 510 kts 249°
2025-09-09 12:07 20.62277 77.64790 39874 ft 509 kts 249°
2025-09-09 12:09 20.53043 77.36278 39880 ft 511 kts 251°
2025-09-09 12:11 20.44414 77.07462 39885 ft 509 kts 251°
2025-09-09 12:13 20.35600 76.78792 39908 ft 508 kts 248°
2025-09-09 12:14 20.26847 76.54230 39916 ft 509 kts 248°
2025-09-09 12:17 20.15657 76.22791 39922 ft 505 kts 248°
2025-09-09 12:19 20.05638 75.94792 39938 ft 504 kts 248°
2025-09-09 12:21 19.94376 75.63506 39928 ft 506 kts 248°
2025-09-09 12:22 19.86829 75.42647 39897 ft 504 kts 248°
2025-09-09 12:25 19.77392 75.11261 33358 ft 474 kts 252°
2025-09-09 12:27 19.69804 74.85727 29175 ft 439 kts 252°
2025-09-09 12:29 19.61738 74.58790 24621 ft 418 kts 253°
2025-09-09 12:29 19.60857 74.55855 24101 ft 416 kts 253°
2025-09-09 12:30 19.59223 74.50031 23071 ft 411 kts 255°
2025-09-09 12:30 19.57674 74.44272 22051 ft 406 kts 255°
2025-09-09 12:31 19.56124 74.38545 21026 ft 402 kts 255°
2025-09-09 12:31 19.54596 74.32917 20005 ft 398 kts 254°
2025-09-09 12:32 19.53071 74.27316 18978 ft 393 kts 254°
2025-09-09 12:32 19.50823 74.19080 17461 ft 385 kts 254°
2025-09-09 12:33 19.49346 74.13674 16487 ft 379 kts 254°
2025-09-09 12:33 19.48618 74.11014 16018 ft 376 kts 254°
2025-09-09 12:34 19.47179 74.05762 15125 ft 368 kts 254°
2025-09-09 12:34 19.45761 74.00591 14203 ft 364 kts 253°
2025-09-09 12:35 19.44363 73.95499 13234 ft 360 kts 253°
2025-09-09 12:35 19.42291 73.87995 12115 ft 342 kts 251°
2025-09-09 12:36 19.40290 73.83652 11829 ft 319 kts 241°
2025-09-09 12:36 19.39223 73.81589 11603 ft 313 kts 241°
2025-09-09 12:37 19.37179 73.77632 11194 ft 301 kts 241°
2025-09-09 12:37 19.35183 73.73759 10808 ft 301 kts 241°
2025-09-09 12:38 19.33179 73.69872 10409 ft 300 kts 241°
2025-09-09 12:38 19.31199 73.66033 10079 ft 288 kts 241°
2025-09-09 12:39 19.29275 73.62305 9786 ft 292 kts 241°
2025-09-09 12:39 19.28311 73.60438 9499 ft 290 kts 241°
2025-09-09 12:40 19.24514 73.53091 8626 ft 281 kts 241°
2025-09-09 12:40 19.22658 73.49503 8246 ft 279 kts 241°
2025-09-09 12:41 19.20881 73.45888 7858 ft 277 kts 249°
2025-09-09 12:41 19.20237 73.43964 7679 ft 278 kts 250°
2025-09-09 12:42 19.18901 73.40128 7323 ft 276 kts 249°
2025-09-09 12:42 19.17520 73.36334 6978 ft 276 kts 248°
2025-09-09 12:43 19.16167 73.32629 6620 ft 266 kts 248°
2025-09-09 12:43 19.14216 73.27295 6098 ft 252 kts 248°
2025-09-09 12:44 19.13590 73.25584 5937 ft 248 kts 248°
2025-09-09 12:44 19.12379 73.22277 5633 ft 232 kts 248°
2025-09-09 12:45 19.11254 73.19205 5313 ft 216 kts 248°
2025-09-09 12:45 19.10206 73.16346 5018 ft 201 kts 248°
2025-09-09 12:46 19.09280 73.13584 4541 ft 201 kts 261°
2025-09-09 12:46 19.09184 73.10574 3849 ft 210 kts 269°
2025-09-09 12:47 19.09151 73.07465 3177 ft 216 kts 269°
2025-09-09 12:47 19.09094 73.03029 2973 ft 182 kts 269°
2025-09-09 12:48 19.09068 73.00388 2979 ft 178 kts 269°
2025-09-09 12:48 19.09030 72.97721 2217 ft 188 kts 269°
2025-09-09 12:49 19.09008 72.96390 1702 ft 176 kts 269°
2025-09-09 12:49 19.08972 72.93886 1216 ft 172 kts 269°
2025-09-09 12:50 19.08938 72.91579 792 ft 143 kts 268°
2025-09-09 12:50 19.08910 72.89555 422 ft 136 kts 268°
2025-09-09 12:51 19.08887 72.87589 75 ft 131 kts 268°
2025-09-09 12:51 19.08868 72.86011 34 ft 14 kts 282°
2025-09-09 12:52 19.08929 72.85878 32 ft 1 kts 302°
2025-09-09 12:52 19.08940 72.85859 32 ft 4 kts 302°
2025-09-09 12:53 19.09005 72.85822 35 ft 5 kts 10°
2025-09-09 12:53 19.09086 72.85858 39 ft 9 kts 29°
2025-09-09 12:54 19.09171 72.85907 41 ft 1 kts 24°
2025-09-09 12:54 19.09195 72.85915 46 ft 4 kts
2025-09-09 12:55 19.09233 72.85905 47 ft 0 kts 340°